Regional Weather Roundup
Issued by NWS Memphis, TN

Home | Current Version | Previous Version | Text Only | Print | Product List | Glossary On
Versions: 1 2 3 4 5 6 7 8 9 10 11 12 13 14 15 16 17 18 19 20 21 22 23 24 25 26 27 28 29 30 31 32 33 34 35 36 37 38 39 40 41 42 43 44 45 46 47 48 49 50
000
ASUS44 KMEG 282210
RWRMEG
MEMPHIS CWA HOURLY WEATHER ROUNDUP
NATIONAL WEATHER SERVICE MEMPHIS TN
500 PM CDT THU APR 28 2016

...WEST TENNESSEE...

CITY           SKY/WX    TMP DP  RH WIND       PRES   REMARKS
MEMPHIS INTL   MOSUNNY   85  53  33 NW5       29.93S
NWS MEMPHIS      N/A     85 N/A N/A MISG        N/A
JACKSON        SUNNY     82  51  34 W6        29.92S
LEXINGTON      SUNNY     82  52  34 W9        29.92R
DYERSBURG      SUNNY     82  48  30 SW9       29.92F


...EASTERN ARKANSAS...

CITY           SKY/WX    TMP DP  RH WIND       PRES   REMARKS
JONESBORO      SUNNY     82  46  28 W6        29.92S
WEST MEMPHIS   SUNNY     82  51  34 VRB3      29.91F
BATESVILLE     SUNNY     82  45  26 CALM      29.93F
NEWPORT        SUNNY     83  45  26 CALM      29.94S
WALNUT RIDGE   SUNNY     81  46  30 SW12      29.93S
BLYTHEVILLE    SUNNY     83  43  24 W8        29.91F
NW BLYTHEVILLE SUNNY     82  45  26 W9G16     29.91S
SEARCY         SUNNY     82  54  36 CALM      29.94S
STUTTGART      SUNNY     81  50  34 MISG      29.93S
PINE BLUFF     SUNNY     84  49  29 VRB5      29.90F
MONTICELLO     SUNNY     86  54  33 NE8       29.89F


...NORTH MISSISSIPPI...

CITY           SKY/WX    TMP DP  RH WIND       PRES   REMARKS
TUPELO         SUNNY     86  52  30 CALM      29.91S
OXFORD         SUNNY     82  57  42 W6        29.94S
BATESVILLE     FAIR      84  49  30 CALM      29.93S
OLIVE BRANCH   SUNNY     82  52  34 CALM      29.93S
TUNICA         SUNNY     81  50  34 CALM      29.93S
CORINTH        SUNNY     84  54  34 VRB5      29.91S
GREENWOOD      SUNNY     86  55  34 SW3       29.90S
COLUMBUS       SUNNY     86  64  47 S5        29.90S
GOLDEN TRIANGL MOSUNNY   88  57  35 SW5       29.90F


...SOUTHEAST MISSOURI...

CITY           SKY/WX    TMP DP  RH WIND       PRES   REMARKS
KENNETT        FAIR      81  46  30 W8G15     29.91S
WEST PLAINS    SUNNY     77  40  26 W10       29.96R
POPLAR BLUFF   SUNNY     80  45  28 VRB7      29.91R
CAPE GIRARDEAU MOSUNNY   76  47  35 W9        29.90R


...NORTHWEST ALABAMA...

CITY           SKY/WX    TMP DP  RH WIND       PRES   REMARKS
MUSCLE SHOALS  SUNNY     86  53  32 NW12      29.93R


...MIDDLE TENNESSEE...

CITY           SKY/WX    TMP DP  RH WIND       PRES   REMARKS
NASHVILLE      MOSUNNY   83  52  34 W8        29.90R
CLARKSVILLE    SUNNY     79  49  34 SW9G18    29.90S
COLUMBIA       SUNNY     84  55  37 W9        29.90S


...WESTERN KENTUCKY...

CITY           SKY/WX    TMP DP  RH WIND       PRES   REMARKS
PADUCAH        SUNNY     77  49  37 W8        29.90S
FORT CAMPBELL  SUNNY     79  51  37 W15       29.90R


...CENTRAL ARKANSAS...

CITY           SKY/WX    TMP DP  RH WIND       PRES   REMARKS
LITTLE ROCK    MOSUNNY   83  48  29 E9        29.91F


SKY/WX REPORTED AS FAIR MEANS FEW OR NO CLOUDS BELOW
12 THOUSAND FEET.




USA.gov is the U.S. government's official web portal to all federal, state and local government web resources and services.